This is the latest recevied weather packets stored in our database for station/object SR9WXM. If no packets are shown the sender has not sent any weather packets the latest 1 day(s).
| Time | Temp. | Humidity | Pressure | Rain* | Wind** | Luminosity | Snow |
|---|---|---|---|---|---|---|---|
| 1777950775 | 11.67° C | 100% | 0 hPa | - | 5.36 m/s, 192° | - | - |
| 1777950535 | 11.67° C | 100% | 0 hPa | - | 5.36 m/s, 186° | - | - |
| 1777950295 | 11.67° C | 100% | 0 hPa | - | 4.92 m/s, 198° | - | - |
| 1777950053 | 11.67° C | 100% | 0 hPa | - | 5.36 m/s, 194° | - | - |
| 1777949813 | 12.22° C | 100% | 0 hPa | - | 5.36 m/s, 202° | - | - |
| 1777949573 | 12.22° C | 100% | 0 hPa | - | 6.26 m/s, 189° | - | - |
| 1777949331 | 11.67° C | 100% | 0 hPa | - | 4.92 m/s, 182° | - | - |
| 1777949091 | 11.67° C | 100% | 0 hPa | - | 5.36 m/s, 189° | - | - |
| 1777948849 | 11.67° C | 100% | 0 hPa | - | 4.92 m/s, 185° | - | - |
| 1777948609 | 11.67° C | 100% | 0 hPa | - | 5.36 m/s, 181° | - | - |
| 1777948369 | 11.67° C | 100% | 0 hPa | - | 4.92 m/s, 173° | - | - |
| 1777948129 | 11.67° C | 100% | 0 hPa | - | 5.36 m/s, 195° | - | - |
| 1777947889 | 11.67° C | 100% | 0 hPa | - | 5.36 m/s, 191° | - | - |
| 1777947647 | 11.67° C | 100% | 0 hPa | - | 5.81 m/s, 194° | - | - |
| 1777947407 | 11.67° C | 100% | 0 hPa | - | 5.81 m/s, 181° | - | - |
| 1777947167 | 11.67° C | 100% | 0 hPa | - | 4.92 m/s, 175° | - | - |
| 1777946927 | 11.67° C | 100% | 0 hPa | - | 5.36 m/s, 192° | - | - |
| 1777946687 | 11.67° C | 100% | 0 hPa | - | 5.36 m/s, 192° | - | - |
| 1777946448 | 11.67° C | 100% | 0 hPa | - | 4.92 m/s, 196° | - | - |
| 1777946204 | 11.67° C | 100% | 0 hPa | - | 5.36 m/s, 201° | - | - |
| 1777945965 | 11.67° C | 100% | 0 hPa | - | 5.36 m/s, 199° | - | - |
| 1777945725 | 11.67° C | 100% | 0 hPa | - | 4.92 m/s, 195° | - | - |
| 1777945485 | 11.67° C | 100% | 0 hPa | - | 5.36 m/s, 189° | - | - |
| 1777945243 | 11.67° C | 100% | 0 hPa | - | 4.92 m/s, 184° | - | - |
* Rain since midnight (hover to see other rain measurements)
** Current wind speed in m/s (hover to see current wind gust speed)